�N����,����,�~����,�C��,���x,�C��,����,���ϕ���,�ő�u�ԕ���,�ő厞����,���˗�,�I�_���x,�n�����x,�ő啗���N��,DTYPE
"20/12/20","00:10",0.0,2.6,90.4,1017.5,309.0,3.9,6.5,319.5,0.00,1.2,6.1,"00:08:00",1
"20/12/20","00:20",0.0,2.6,90.5,1017.5,309.6,3.6,5.6,313.1,0.00,1.2,6.1,"00:19:52",1
"20/12/20","00:30",0.0,2.6,90.6,1017.3,306.3,3.7,7.0,312.6,0.00,1.3,6.0,"00:26:16",1
"20/12/20","00:40",0.0,2.6,90.6,1017.1,306.7,4.0,5.4,288.2,0.00,1.3,6.0,"00:33:12",1
"20/12/20","00:50",0.0,2.5,90.7,1017.3,312.1,4.1,7.9,318.8,0.00,1.2,5.9,"00:42:40",1
"20/12/20","01:00",0.0,2.6,90.6,1017.3,307.0,4.0,7.1,309.8,0.00,1.3,6.1,"00:50:02",1
"20/12/20","01:10",0.0,2.8,90.4,1017.5,310.9,4.7,8.5,336.0,0.00,1.4,5.9,"01:01:58",1
"20/12/20","01:20",0.0,2.7,90.2,1017.1,313.7,3.7,7.7,327.9,0.00,1.3,5.9,"01:11:28",1
"20/12/20","01:30",0.0,2.5,90.2,1017.3,297.8,3.1,4.5,297.8,0.00,1.1,5.8,"01:29:04",1
"20/12/20","01:40",0.0,2.6,90.0,1017.1,301.8,3.5,6.4,290.0,0.00,1.2,5.9,"01:33:24",1
"20/12/20","01:50",0.0,2.6,89.8,1017.5,300.9,3.6,7.0,311.1,0.00,1.1,5.9,"01:45:14",1
"20/12/20","02:00",0.0,2.6,89.6,1017.3,299.7,3.9,7.5,333.2,0.00,1.1,5.8,"01:56:18",1
"20/12/20","02:10",0.0,2.6,89.4,1017.5,297.9,4.2,6.3,319.5,0.00,1.1,5.7,"02:09:24",1
"20/12/20","02:20",0.0,2.5,89.3,1017.5,304.4,3.9,7.7,314.1,0.00,1.0,5.8,"02:13:52",1
"20/12/20","02:30",0.0,2.6,89.2,1017.3,305.9,4.1,6.3,316.5,0.00,1.0,5.6,"02:25:28",1
"20/12/20","02:40",0.0,2.7,89.2,1017.3,304.9,3.4,5.7,320.0,0.00,1.1,5.7,"02:32:08",1
"20/12/20","02:50",0.0,2.6,89.2,1017.3,312.6,3.6,6.0,332.6,0.00,1.0,5.9,"02:48:48",1
"20/12/20","03:00",0.0,2.6,89.3,1017.1,307.6,3.7,5.6,309.0,0.00,1.1,5.9,"02:51:38",1
"20/12/20","03:10",0.0,2.6,89.5,1017.1,311.9,4.1,6.6,322.7,0.00,1.1,5.8,"03:00:32",1
"20/12/20","03:20",0.0,2.5,89.5,1017.1,303.8,3.9,7.0,319.3,0.00,1.0,5.8,"03:12:48",1
"20/12/20","03:30",0.0,2.4,89.7,1017.3,295.5,3.0,4.3,274.5,0.00,0.9,5.6,"03:23:04",1
"20/12/20","03:40",0.0,2.5,89.8,1017.5,287.6,3.1,4.5,310.4,0.00,1.0,5.7,"03:38:16",1
"20/12/20","03:50",0.0,2.5,89.8,1017.3,289.7,3.6,6.2,302.8,0.00,1.0,5.6,"03:42:28",1
"20/12/20","04:00",0.0,2.4,89.9,1017.5,286.3,3.6,6.0,301.0,0.00,1.0,5.8,"03:57:52",1
"20/12/20","04:10",0.0,2.3,90.1,1017.5,302.5,3.7,5.5,304.5,0.00,0.9,5.8,"04:04:28",1
"20/12/20","04:20",0.0,2.3,90.4,1017.1,299.3,3.5,5.5,328.4,0.00,0.9,5.6,"04:17:36",1
"20/12/20","04:30",0.0,2.3,90.6,1017.1,292.9,2.7,6.0,320.4,0.00,1.0,5.6,"04:20:42",1
"20/12/20","04:40",0.0,2.4,90.7,1017.1,285.4,3.0,5.4,328.1,0.00,1.1,5.7,"04:34:24",1
"20/12/20","04:50",0.0,2.5,90.8,1017.5,269.4,2.6,4.2,304.0,0.00,1.2,5.6,"04:41:12",1
"20/12/20","05:00",0.0,2.4,90.8,1017.5,282.4,2.2,4.0,319.0,0.00,1.1,5.6,"04:51:44",1
"20/12/20","05:10",0.0,2.4,90.9,1017.5,285.9,1.8,3.2,270.6,0.00,1.1,5.6,"05:00:20",1
"20/12/20","05:20",0.0,2.4,91.0,1017.8,274.9,2.3,2.6,276.6,0.00,1.1,5.6,"05:10:08",1
"20/12/20","05:30",0.0,2.3,91.1,1017.8,291.8,1.8,3.3,295.1,0.00,1.0,5.5,"05:25:58",1
"20/12/20","05:40",0.0,2.3,91.2,1018.0,280.3,2.2,4.1,315.3,0.00,1.1,5.4,"05:32:34",1
"20/12/20","05:50",0.0,2.4,91.4,1017.8,267.2,2.1,3.3,270.1,0.00,1.2,5.5,"05:40:10",1
"20/12/20","06:00",0.0,2.3,91.4,1018.0,250.4,1.7,2.4,238.0,0.00,1.1,5.5,"05:56:30",1
"20/12/20","06:10",0.0,2.3,91.6,1018.2,251.3,2.0,2.8,242.9,0.00,1.1,5.7,"06:08:50",1
"20/12/20","06:20",0.0,1.8,91.5,1018.0,290.4,2.3,4.1,321.4,0.00,0.6,5.5,"06:17:06",1
"20/12/20","06:30",0.0,1.2,91.7,1018.0,313.7,1.7,3.5,318.7,0.00,0.0,5.7,"06:20:42",1
"20/12/20","06:40",0.0,1.1,92.2,1018.2,304.4,1.5,3.5,314.6,0.00,0.0,5.7,"06:32:34",1
"20/12/20","06:50",0.0,1.1,92.3,1018.2,292.6,1.3,3.3,325.0,0.00,0.0,5.6,"06:49:28",1
"20/12/20","07:00",0.0,0.9,92.5,1018.2,320.3,2.0,3.1,322.5,0.00,-0.1,5.3,"06:50:34",1
"20/12/20","07:10",0.0,0.4,92.7,1018.2,283.0,1.5,2.2,313.8,0.00,-0.6,5.3,"07:09:56",1
"20/12/20","07:20",0.0,0.2,93.0,1018.2,317.7,1.3,3.2,340.5,0.00,-0.8,5.6,"07:10:20",1
"20/12/20","07:30",0.0,0.0,93.3,1018.2,248.8,1.1,1.4,311.7,0.00,-0.9,5.3,"07:29:54",1
"20/12/20","07:40",0.0,0.0,93.6,1018.0,318.9,1.2,2.0,335.5,0.00,-0.9,5.2,"07:34:56",1
"20/12/20","07:50",0.0,0.2,93.9,1018.2,275.2,1.0,1.8,318.7,0.01,-0.6,5.4,"07:40:24",1
"20/12/20","08:00",0.0,0.9,93.9,1018.2,266.2,1.0,2.5,269.7,0.01,0.1,5.3,"07:51:32",1
"20/12/20","08:10",0.0,1.3,94.0,1018.7,303.7,1.6,4.0,315.7,0.02,0.5,5.3,"08:05:44",1
"20/12/20","08:20",0.0,1.9,94.1,1018.5,307.2,1.6,2.8,325.6,0.04,1.1,5.3,"08:11:44",1
"20/12/20","08:30",0.0,3.0,94.0,1018.5,290.6,2.5,3.2,313.3,0.06,2.2,5.7,"08:27:26",1
"20/12/20","08:40",0.0,3.7,93.6,1018.7,278.9,2.3,3.1,291.7,0.07,2.8,5.6,"08:32:26",1
"20/12/20","08:50",0.0,4.1,93.3,1019.4,282.4,1.1,1.1,289.5,0.10,3.2,5.6,"08:46:40",1
"20/12/20","09:00",0.0,4.5,93.2,1019.2,282.6,1.6,2.1,268.9,0.13,3.5,5.8,"08:54:10",1
"20/12/20","09:10",0.0,4.9,92.5,1019.7,273.5,1.7,2.4,266.0,0.17,3.8,6.0,"09:02:04",1
"20/12/20","09:20",0.0,4.9,91.6,1020.1,268.7,2.0,2.9,267.3,0.23,3.7,6.4,"09:16:58",1
"20/12/20","09:30",0.0,5.2,90.8,1020.1,281.0,2.3,3.7,296.2,0.23,3.9,6.2,"09:29:10",1
"20/12/20","09:40",0.0,5.5,88.8,1020.4,269.4,2.3,3.7,278.7,0.24,3.8,6.5,"09:38:20",1
"20/12/20","09:50",0.0,5.4,86.8,1020.4,288.0,3.0,5.6,343.3,0.27,3.4,6.6,"09:43:10",1
"20/12/20","10:00",0.0,5.5,85.0,1020.8,284.7,3.4,5.8,325.4,0.29,3.2,6.5,"09:55:18",1
"20/12/20","10:10",0.0,5.6,82.9,1021.1,283.3,3.2,5.0,299.8,0.29,3.0,6.9,"10:02:12",1
"20/12/20","10:20",0.0,5.2,81.7,1020.8,286.2,1.5,1.9,289.7,0.13,2.4,7.0,"10:13:22",1
"20/12/20","10:30",0.0,5.3,80.8,1020.6,307.4,2.5,3.1,291.0,0.12,2.3,6.9,"10:21:32",1
"20/12/20","10:40",0.0,5.4,80.7,1020.1,298.0,3.9,6.5,311.5,0.19,2.4,7.1,"10:37:36",1
"20/12/20","10:50",0.0,6.1,79.9,1020.1,280.4,2.6,4.0,257.9,0.29,2.9,7.2,"10:48:06",1
"20/12/20","11:00",0.0,6.5,78.8,1020.1,279.7,2.6,5.7,332.9,0.34,3.1,7.3,"10:52:42",1
"20/12/20","11:10",0.0,6.7,77.4,1020.4,277.1,3.4,5.9,280.8,0.43,3.1,7.6,"11:06:00",1
"20/12/20","11:20",0.0,7.0,75.9,1019.9,276.8,3.1,5.2,307.7,0.43,3.1,7.7,"11:19:16",1
"20/12/20","11:30",0.0,6.6,74.3,1019.7,267.0,3.1,4.7,258.4,0.30,2.4,7.8,"11:20:18",1
"20/12/20","11:40",0.0,7.2,74.3,1019.4,269.6,3.1,4.4,283.2,0.45,3.0,8.1,"11:38:28",1
"20/12/20","11:50",0.0,6.5,71.8,1019.7,329.4,4.1,7.3,337.1,0.20,1.8,8.0,"11:42:06",1
"20/12/20","12:00",0.0,7.3,71.1,1019.4,314.4,4.4,7.1,332.8,0.39,2.5,8.2,"11:52:00",1
"20/12/20","12:10",0.0,7.6,69.7,1019.4,335.9,4.4,8.6,328.9,0.45,2.5,8.3,"12:09:44",1
"20/12/20","12:20",0.0,6.8,68.9,1019.0,334.6,4.5,8.2,347.4,0.19,1.5,8.4,"12:19:12",1
"20/12/20","12:30",0.0,6.8,70.5,1019.0,336.3,4.2,8.0,344.3,0.29,1.9,8.6,"12:20:26",1
"20/12/20","12:40",0.0,7.7,68.6,1018.7,300.5,3.1,5.4,318.8,0.48,2.3,8.8,"12:39:44",1
"20/12/20","12:50",0.0,8.2,67.5,1018.7,300.9,4.1,8.7,341.9,0.53,2.6,8.8,"12:43:02",1
"20/12/20","13:00",0.0,8.0,67.2,1018.5,313.8,4.9,9.0,332.9,0.49,2.3,9.2,"12:54:16",1
"20/12/20","13:10",0.0,7.4,68.1,1018.2,324.3,4.6,9.4,336.1,0.25,1.9,9.1,"13:03:36",1
"20/12/20","13:20",0.0,7.4,68.7,1018.5,319.5,3.7,8.3,329.8,0.32,2.1,9.3,"13:17:10",1
"20/12/20","13:30",0.0,8.1,68.3,1018.2,313.3,3.2,7.4,343.3,0.49,2.7,9.3,"13:25:48",1
"20/12/20","13:40",0.0,8.8,66.2,1018.7,307.7,3.2,7.0,339.2,0.51,2.9,9.6,"13:34:08",1
"20/12/20","13:50",0.0,8.0,65.7,1018.5,319.5,4.4,7.9,319.3,0.43,2.0,9.8,"13:47:54",1
"20/12/20","14:00",0.0,7.7,66.2,1018.2,295.1,3.7,7.3,314.0,0.37,1.8,9.7,"13:59:46",1
"20/12/20","14:10",0.0,7.6,66.8,1018.2,299.9,4.2,7.0,312.0,0.36,1.9,9.8,"14:04:48",1
"20/12/20","14:20",0.0,7.4,67.0,1018.2,290.5,3.5,7.2,331.0,0.31,1.7,9.8,"14:17:38",1
"20/12/20","14:30",0.0,7.6,67.0,1018.2,279.4,3.2,5.1,306.7,0.25,1.9,9.8,"14:29:24",1
"20/12/20","14:40",0.0,7.8,67.2,1018.5,302.0,2.7,5.6,337.0,0.22,2.1,10.0,"14:32:26",1
"20/12/20","14:50",0.2,7.0,66.6,1018.5,335.0,4.6,8.6,329.0,0.16,1.3,9.8,"14:42:10",1
"20/12/20","15:00",0.0,6.8,67.7,1018.0,336.3,4.0,7.3,341.2,0.12,1.3,9.7,"14:56:16",1
"20/12/20","15:10",0.0,7.2,68.3,1018.2,332.1,3.9,6.0,318.6,0.18,1.8,9.6,"15:00:20",1
"20/12/20","15:20",0.0,7.3,68.1,1018.0,317.7,2.8,5.5,343.3,0.15,1.9,9.4,"15:10:08",1
"20/12/20","15:30",0.0,7.2,68.6,1018.5,316.7,2.6,4.1,328.7,0.11,1.9,9.7,"15:20:40",1
"20/12/20","15:40",0.0,7.0,68.7,1018.0,303.4,2.5,4.7,328.8,0.09,1.7,9.6,"15:36:16",1
"20/12/20","15:50",0.0,7.0,69.0,1018.5,327.7,2.5,4.5,327.8,0.07,1.7,9.4,"15:40:08",1
"20/12/20","16:00",0.0,6.7,68.7,1018.7,337.0,3.4,6.6,334.6,0.05,1.4,9.1,"15:56:06",1
"20/12/20","16:10",0.0,6.5,69.0,1018.5,280.3,2.0,3.6,321.6,0.02,1.3,9.1,"16:06:48",1
"20/12/20","16:20",0.0,6.1,70.2,1018.7,298.8,1.6,3.1,336.2,0.00,1.1,8.9,"16:19:36",1
"20/12/20","16:30",0.0,5.7,71.5,1018.5,355.8,1.6,4.0,334.0,0.01,1.0,8.7,"16:26:48",1
"20/12/20","16:40",0.0,5.5,72.1,1018.5,334.8,1.2,2.9,311.6,0.00,0.9,8.8,"16:34:08",1
"20/12/20","16:50",0.0,5.3,72.5,1018.5,301.8,1.2,2.4,324.5,0.00,0.8,8.7,"16:40:48",1
"20/12/20","17:00",0.0,5.1,72.9,1018.2,337.1,1.5,3.6,354.2,0.00,0.7,8.7,"16:52:00",1
"20/12/20","17:10",0.0,4.7,73.3,1018.2,283.0,1.6,3.5,294.9,0.00,0.4,8.4,"17:09:44",1
"20/12/20","17:20",0.0,4.6,74.3,1018.2,268.8,2.2,4.5,237.7,0.00,0.5,8.4,"17:13:52",1
"20/12/20","17:30",0.0,4.5,75.1,1018.2,278.1,2.0,4.0,311.1,0.00,0.5,8.2,"17:28:32",1
"20/12/20","17:40",0.0,4.5,76.0,1018.5,263.0,2.5,4.1,264.8,0.00,0.7,8.1,"17:32:40",1
"20/12/20","17:50",0.0,4.3,76.9,1018.2,257.6,2.3,4.3,275.3,0.00,0.7,7.8,"17:46:48",1
"20/12/20","18:00",0.0,4.2,77.7,1019.4,274.0,2.7,4.1,251.0,0.00,0.7,7.8,"17:50:32",1
"20/12/20","18:10",0.0,4.1,78.7,1018.2,270.9,2.2,3.6,240.0,0.00,0.8,7.8,"18:05:28",1
"20/12/20","18:20",0.0,3.8,79.3,1018.7,304.1,2.5,4.5,267.0,0.00,0.6,7.7,"18:10:24",1
"20/12/20","18:30",0.0,3.2,79.9,1019.0,326.7,2.1,2.9,329.4,0.00,0.1,7.8,"18:20:08",1
"20/12/20","18:40",0.0,2.6,80.8,1018.5,318.1,1.8,2.5,326.4,0.00,-0.3,7.5,"18:30:40",1
"20/12/20","18:50",0.0,2.3,81.7,1019.0,312.5,1.8,3.7,336.5,0.00,-0.5,7.2,"18:47:12",1
"20/12/20","19:00",0.0,1.9,82.6,1018.7,318.6,2.2,3.2,301.8,0.00,-0.7,7.3,"18:50:16",1
"20/12/20","19:10",0.0,1.6,83.6,1018.5,314.4,1.8,3.1,314.3,0.00,-0.8,7.2,"19:05:12",1
"20/12/20","19:20",0.0,1.3,84.6,1017.8,305.2,1.7,2.7,321.0,0.00,-1.0,7.1,"19:16:08",1
"20/12/20","19:30",0.0,0.9,85.3,1018.5,300.2,1.7,2.8,318.7,0.00,-1.2,7.2,"19:24:08",1
"20/12/20","19:40",0.0,0.8,86.4,1017.8,324.4,2.2,3.1,334.5,0.00,-1.2,7.0,"19:36:58",1
"20/12/20","19:50",0.0,0.9,87.2,1018.2,318.3,1.8,2.8,320.0,0.00,-0.9,6.8,"19:43:52",1
"20/12/20","20:00",0.0,0.9,87.8,1018.2,283.2,1.0,2.2,266.4,0.00,-0.9,6.7,"19:58:00",1
"20/12/20","20:10",0.0,1.1,88.5,1018.2,322.4,1.8,2.8,317.9,0.00,-0.5,6.8,"20:05:52",1
"20/12/20","20:20",0.0,1.2,89.0,1018.0,309.4,2.0,3.4,321.4,0.00,-0.4,6.9,"20:11:28",1
"20/12/20","20:30",0.0,1.1,89.4,1018.7,297.2,1.5,2.2,314.5,0.00,-0.4,6.8,"20:22:24",1
"20/12/20","20:40",0.0,1.3,89.9,1018.5,327.7,2.2,3.2,325.4,0.00,-0.1,6.5,"20:36:48",1
"20/12/20","20:50",0.0,1.2,90.3,1018.7,327.0,2.0,2.7,333.0,0.00,-0.2,6.5,"20:40:32",1
"20/12/20","21:00",0.0,1.1,90.7,1019.0,314.3,2.0,3.3,331.6,0.00,-0.2,6.6,"20:55:04",1
"20/12/20","21:10",0.0,1.2,91.0,1019.0,322.0,2.2,2.8,329.5,0.00,-0.1,6.5,"21:07:28",1
"20/12/20","21:20",0.0,1.2,91.3,1018.7,325.1,2.2,3.2,332.7,0.00,0.0,6.3,"21:16:24",1
"20/12/20","21:30",0.0,1.2,91.7,1018.5,325.6,2.3,3.2,328.7,0.00,0.0,6.4,"21:24:00",1
"20/12/20","21:40",0.0,1.1,91.9,1019.0,284.9,1.7,2.4,301.8,0.00,0.0,6.4,"21:30:08",1
"20/12/20","21:50",0.0,1.0,92.2,1019.0,313.2,2.0,2.6,325.2,0.00,-0.1,6.3,"21:47:12",1
"20/12/20","22:00",0.0,0.9,92.4,1019.0,319.0,2.0,2.9,350.3,0.00,-0.2,6.3,"21:50:24",1
"20/12/20","22:10",0.0,0.7,92.7,1018.7,321.1,1.8,2.6,318.3,0.00,-0.3,6.2,"22:04:08",1
"20/12/20","22:20",0.0,0.8,93.0,1019.0,328.0,2.8,3.9,323.3,0.00,-0.2,6.3,"22:19:46",1
"20/12/20","22:30",0.0,1.3,93.2,1018.7,319.0,3.2,5.0,328.9,0.00,0.4,6.2,"22:29:36",1
"20/12/20","22:40",0.0,1.6,93.2,1018.7,324.1,3.4,4.3,334.1,0.00,0.7,6.1,"22:37:12",1
"20/12/20","22:50",0.0,1.6,93.4,1019.0,323.9,3.1,4.5,334.8,0.00,0.7,6.1,"22:42:56",1
"20/12/20","23:00",0.0,1.6,93.4,1019.0,319.5,1.8,4.4,335.2,0.00,0.7,6.0,"22:51:20",1
"20/12/20","23:10",0.0,1.0,93.6,1019.4,261.2,0.6,1.9,274.5,0.00,0.1,6.1,"23:09:52",1
"20/12/20","23:20",0.0,0.9,93.9,1019.0,297.9,2.2,3.9,320.8,0.00,0.1,5.9,"23:14:32",1
"20/12/20","23:30",0.0,1.0,94.1,1019.0,324.2,2.7,3.5,333.4,0.00,0.2,5.9,"23:23:52",1
"20/12/20","23:40",0.0,0.9,94.2,1018.7,309.1,2.0,2.7,332.8,0.00,0.1,6.0,"23:31:36",1
"20/12/20","23:50",0.0,0.8,94.3,1019.0,310.6,1.6,2.2,322.5,0.00,0.0,5.8,"23:44:16",1
"20/12/20","24:00",0.0,0.7,94.5,1019.0,289.2,0.8,1.6,306.7,0.00,0.0,5.9,"23:56:08",1
